Time,TemperatureF,DewpointF,PressureIn,WindDirection,WindDirectionDegrees,WindSpeedMPH,WindSpeedGustMPH,Humidity,HourlyPrecipIn,Conditions,Clouds,dailyrainin,SoftwareType,DateUTC
2013-08-15 06:13:00,63.8,58.5,30.14,SSE,158,1.0,-999.0,83,0.00,,,0.00,Wunderground v.1.15,2013-08-15 10:13:00,
2013-08-15 06:18:00,63.3,58.0,30.14,SE,135,1.0,-999.0,83,0.00,,,0.00,Wunderground v.1.15,2013-08-15 10:18:00,
2013-08-15 06:23:00,63.3,58.0,30.14,SE,135,1.0,-999.0,83,0.00,,,0.00,Wunderground v.1.15,2013-08-15 10:23:00,
2013-08-15 06:28:00,63.3,58.0,30.14,SE,135,1.0,-999.0,83,0.00,,,0.00,Wunderground v.1.15,2013-08-15 10:28:00,
2013-08-15 06:33:00,63.3,58.0,30.14,SE,135,1.0,-999.0,83,0.00,,,0.00,Wunderground v.1.15,2013-08-15 10:33:00,
2013-08-15 06:38:00,63.3,58.0,30.14,SE,135,1.0,-999.0,83,0.00,,,0.00,Wunderground v.1.15,2013-08-15 10:38:00,
2013-08-15 06:43:00,63.3,58.0,30.14,SE,135,1.0,-999.0,83,0.00,,,0.00,Wunderground v.1.15,2013-08-15 10:43:00,
2013-08-15 06:48:00,63.0,57.8,30.15,SSE,158,1.0,-999.0,83,0.00,,,0.00,Wunderground v.1.15,2013-08-15 10:48:00,
2013-08-15 06:53:00,63.0,57.8,30.15,SSE,158,1.0,-999.0,83,0.00,,,0.00,Wunderground v.1.15,2013-08-15 10:53:00,
2013-08-15 06:58:00,63.0,57.8,30.15,SSE,158,1.0,-999.0,83,0.00,,,0.00,Wunderground v.1.15,2013-08-15 10:58:00,
2013-08-15 07:03:00,63.0,57.8,30.15,SSE,158,1.0,-999.0,83,0.00,,,0.00,Wunderground v.1.15,2013-08-15 11:03:00,
2013-08-15 07:08:00,63.0,57.8,30.15,SSE,158,1.0,-999.0,83,0.00,,,0.00,Wunderground v.1.15,2013-08-15 11:08:00,
2013-08-15 07:13:00,63.0,57.8,30.15,SSE,158,1.0,-999.0,83,0.00,,,0.00,Wunderground v.1.15,2013-08-15 11:13:00,
2013-08-15 07:18:00,62.5,57.3,30.16,SSE,158,1.0,-999.0,83,0.00,,,0.00,Wunderground v.1.15,2013-08-15 11:18:00,
2013-08-15 07:23:00,62.5,57.3,30.16,SSE,158,1.0,-999.0,83,0.00,,,0.00,Wunderground v.1.15,2013-08-15 11:23:00,
2013-08-15 07:28:00,62.5,57.3,30.16,SSE,158,1.0,-999.0,83,0.00,,,0.00,Wunderground v.1.15,2013-08-15 11:28:00,
2013-08-15 07:33:00,62.5,57.3,30.16,SSE,158,1.0,-999.0,83,0.00,,,0.00,Wunderground v.1.15,2013-08-15 11:33:00,
2013-08-15 07:38:00,62.5,57.3,30.16,SSE,158,1.0,-999.0,83,0.00,,,0.00,Wunderground v.1.15,2013-08-15 11:38:00,
2013-08-15 07:43:00,62.5,57.3,30.16,SSE,158,1.0,-999.0,83,0.00,,,0.00,Wunderground v.1.15,2013-08-15 11:43:00,
2013-08-15 07:48:00,62.7,57.5,30.16,SE,135,1.0,-999.0,83,0.00,,,0.00,Wunderground v.1.15,2013-08-15 11:48:00,
2013-08-15 07:53:00,62.7,57.5,30.16,SE,135,1.0,-999.0,83,0.00,,,0.00,Wunderground v.1.15,2013-08-15 11:53:00,
2013-08-15 07:58:00,62.7,57.5,30.16,SE,135,1.0,-999.0,83,0.00,,,0.00,Wunderground v.1.15,2013-08-15 11:58:00,
2013-08-15 08:03:00,62.7,57.5,30.16,SE,135,1.0,-999.0,83,0.00,,,0.00,Wunderground v.1.15,2013-08-15 12:03:00,
2013-08-15 08:08:00,62.7,57.5,30.16,SE,135,1.0,-999.0,83,0.00,,,0.00,Wunderground v.1.15,2013-08-15 12:08:00,
2013-08-15 08:13:00,62.7,57.5,30.16,SE,135,1.0,-999.0,83,0.00,,,0.00,Wunderground v.1.15,2013-08-15 12:13:00,
2013-08-15 08:18:00,64.2,57.9,30.17,SSE,158,1.0,-999.0,80,0.00,,,0.00,Wunderground v.1.15,2013-08-15 12:18:00,
2013-08-15 08:23:00,64.2,57.9,30.17,SSE,158,1.0,-999.0,80,0.00,,,0.00,Wunderground v.1.15,2013-08-15 12:23:00,
2013-08-15 08:28:00,64.2,57.9,30.17,SSE,158,1.0,-999.0,80,0.00,,,0.00,Wunderground v.1.15,2013-08-15 12:28:00,
2013-08-15 08:33:00,64.2,57.9,30.17,SSE,158,1.0,-999.0,80,0.00,,,0.00,Wunderground v.1.15,2013-08-15 12:33:00,
2013-08-15 08:38:00,64.2,57.9,30.17,SSE,158,1.0,-999.0,80,0.00,,,0.00,Wunderground v.1.15,2013-08-15 12:38:00,
2013-08-15 08:43:00,64.2,57.9,30.17,SSE,158,1.0,-999.0,80,0.00,,,0.00,Wunderground v.1.15,2013-08-15 12:43:00,
2013-08-15 08:48:00,66.2,58.0,30.17,SE,135,2.0,-999.0,75,0.00,,,0.00,Wunderground v.1.15,2013-08-15 12:48:00,
2013-08-15 08:53:00,66.2,58.0,30.17,SE,135,2.0,-999.0,75,0.00,,,0.00,Wunderground v.1.15,2013-08-15 12:53:00,
2013-08-15 08:58:00,66.2,58.0,30.17,SE,135,2.0,-999.0,75,0.00,,,0.00,Wunderground v.1.15,2013-08-15 12:58:00,
2013-08-15 09:03:00,66.2,58.0,30.17,SE,135,2.0,-999.0,75,0.00,,,0.00,Wunderground v.1.15,2013-08-15 13:03:00,
2013-08-15 09:08:00,66.2,58.0,30.17,SE,135,2.0,-999.0,75,0.00,,,0.00,Wunderground v.1.15,2013-08-15 13:08:00,
2013-08-15 09:13:00,66.2,58.0,30.17,SE,135,2.0,-999.0,75,0.00,,,0.00,Wunderground v.1.15,2013-08-15 13:13:00,
2013-08-15 09:18:00,67.9,58.5,30.18,SSE,158,2.0,-999.0,72,0.00,,,0.00,Wunderground v.1.15,2013-08-15 13:18:00,
2013-08-15 09:23:00,67.9,58.5,30.18,SSE,158,2.0,-999.0,72,0.00,,,0.00,Wunderground v.1.15,2013-08-15 13:23:00,
2013-08-15 09:28:00,67.9,58.5,30.18,SSE,158,2.0,-999.0,72,0.00,,,0.00,Wunderground v.1.15,2013-08-15 13:28:00,
2013-08-15 09:33:00,67.9,58.5,30.18,SSE,158,2.0,-999.0,72,0.00,,,0.00,Wunderground v.1.15,2013-08-15 13:33:00,
2013-08-15 09:38:00,67.9,58.5,30.18,SSE,158,2.0,-999.0,72,0.00,,,0.00,Wunderground v.1.15,2013-08-15 13:38:00,
2013-08-15 09:43:00,67.9,58.5,30.18,SSE,158,2.0,-999.0,72,0.00,,,0.00,Wunderground v.1.15,2013-08-15 13:43:00,
2013-08-15 09:48:00,69.8,59.2,30.18,SE,135,2.0,-999.0,69,0.00,,,0.00,Wunderground v.1.15,2013-08-15 13:48:00,
2013-08-15 09:53:00,69.8,59.2,30.18,SE,135,2.0,-999.0,69,0.00,,,0.00,Wunderground v.1.15,2013-08-15 13:53:00,
2013-08-15 09:58:00,69.8,59.2,30.18,SE,135,2.0,-999.0,69,0.00,,,0.00,Wunderground v.1.15,2013-08-15 13:58:00,
2013-08-15 10:03:00,69.8,59.2,30.18,SE,135,2.0,-999.0,69,0.00,,,0.00,Wunderground v.1.15,2013-08-15 14:03:00,
2013-08-15 10:08:00,69.8,59.2,30.18,SE,135,2.0,-999.0,69,0.00,,,0.00,Wunderground v.1.15,2013-08-15 14:08:00,
2013-08-15 10:13:00,69.8,59.2,30.18,SE,135,2.0,-999.0,69,0.00,,,0.00,Wunderground v.1.15,2013-08-15 14:13:00,
2013-08-15 10:18:00,71.1,57.9,30.19,SSE,158,2.0,-999.0,63,0.00,,,0.00,Wunderground v.1.15,2013-08-15 14:18:00,
2013-08-15 10:23:00,71.1,57.9,30.19,SSE,158,2.0,-999.0,63,0.00,,,0.00,Wunderground v.1.15,2013-08-15 14:23:00,
2013-08-15 10:28:00,71.1,57.9,30.19,SSE,158,2.0,-999.0,63,0.00,,,0.00,Wunderground v.1.15,2013-08-15 14:28:00,
2013-08-15 10:33:00,71.1,57.9,30.19,SSE,158,2.0,-999.0,63,0.00,,,0.00,Wunderground v.1.15,2013-08-15 14:33:00,
2013-08-15 10:38:00,71.1,57.9,30.19,SSE,158,2.0,-999.0,63,0.00,,,0.00,Wunderground v.1.15,2013-08-15 14:38:00,
2013-08-15 10:43:00,71.1,57.9,30.19,SSE,158,2.0,-999.0,63,0.00,,,0.00,Wunderground v.1.15,2013-08-15 14:43:00,
2013-08-15 10:48:00,72.3,59.0,30.19,West,270,3.0,-999.0,63,0.00,,,0.00,Wunderground v.1.15,2013-08-15 14:48:00,
2013-08-15 10:53:00,72.3,59.0,30.19,West,270,3.0,-999.0,63,0.00,,,0.00,Wunderground v.1.15,2013-08-15 14:53:00,
2013-08-15 10:58:00,72.3,59.0,30.19,West,270,3.0,-999.0,63,0.00,,,0.00,Wunderground v.1.15,2013-08-15 14:58:00,
2013-08-15 11:03:00,72.3,59.0,30.19,West,270,3.0,-999.0,63,0.00,,,0.00,Wunderground v.1.15,2013-08-15 15:03:00,
2013-08-15 11:08:00,72.3,59.0,30.19,West,270,3.0,-999.0,63,0.00,,,0.00,Wunderground v.1.15,2013-08-15 15:08:00,
2013-08-15 11:13:00,72.3,59.0,30.19,West,270,3.0,-999.0,63,0.00,,,0.00,Wunderground v.1.15,2013-08-15 15:13:00,
2013-08-15 11:18:00,73.5,59.7,30.19,SSE,158,2.0,-999.0,62,0.00,,,0.00,Wunderground v.1.15,2013-08-15 15:18:00,
2013-08-15 11:23:00,73.5,59.7,30.19,SSE,158,2.0,-999.0,62,0.00,,,0.00,Wunderground v.1.15,2013-08-15 15:23:00,
2013-08-15 11:28:00,73.5,59.7,30.19,SSE,158,2.0,-999.0,62,0.00,,,0.00,Wunderground v.1.15,2013-08-15 15:28:00,
2013-08-15 11:33:00,73.5,59.7,30.19,SSE,158,2.0,-999.0,62,0.00,,,0.00,Wunderground v.1.15,2013-08-15 15:33:00,
2013-08-15 11:38:00,73.5,59.7,30.19,SSE,158,2.0,-999.0,62,0.00,,,0.00,Wunderground v.1.15,2013-08-15 15:38:00,
2013-08-15 11:43:00,73.5,59.7,30.19,SSE,158,2.0,-999.0,62,0.00,,,0.00,Wunderground v.1.15,2013-08-15 15:43:00,
2013-08-15 11:48:00,74.3,60.4,30.19,West,270,2.0,-999.0,62,0.00,,,0.00,Wunderground v.1.15,2013-08-15 15:48:00,
2013-08-15 11:53:00,74.3,60.4,30.19,West,270,2.0,-999.0,62,0.00,,,0.00,Wunderground v.1.15,2013-08-15 15:53:00,
2013-08-15 11:58:00,74.3,60.4,30.19,West,270,2.0,-999.0,62,0.00,,,0.00,Wunderground v.1.15,2013-08-15 15:58:00,
2013-08-15 12:03:00,74.3,60.4,30.19,West,270,2.0,-999.0,62,0.00,,,0.00,Wunderground v.1.15,2013-08-15 16:03:00,
2013-08-15 12:08:00,74.3,60.4,30.19,West,270,2.0,-999.0,62,0.00,,,0.00,Wunderground v.1.15,2013-08-15 16:08:00,
2013-08-15 12:13:00,74.3,60.4,30.19,West,270,2.0,-999.0,62,0.00,,,0.00,Wunderground v.1.15,2013-08-15 16:13:00,
2013-08-15 12:18:00,74.9,58.6,30.18,SSE,158,2.0,-999.0,57,0.00,,,0.00,Wunderground v.1.15,2013-08-15 16:18:00,
2013-08-15 12:23:00,74.9,58.6,30.18,SSE,158,2.0,-999.0,57,0.00,,,0.00,Wunderground v.1.15,2013-08-15 16:23:00,
2013-08-15 12:28:00,74.9,58.6,30.18,SSE,158,2.0,-999.0,57,0.00,,,0.00,Wunderground v.1.15,2013-08-15 16:28:00,
2013-08-15 12:33:00,74.9,58.6,30.18,SSE,158,2.0,-999.0,57,0.00,,,0.00,Wunderground v.1.15,2013-08-15 16:33:00,
2013-08-15 12:38:00,74.9,58.6,30.18,SSE,158,2.0,-999.0,57,0.00,,,0.00,Wunderground v.1.15,2013-08-15 16:38:00,
2013-08-15 12:43:00,74.9,58.6,30.18,SSE,158,2.0,-999.0,57,0.00,,,0.00,Wunderground v.1.15,2013-08-15 16:43:00,
2013-08-15 12:48:00,73.2,57.5,30.18,SSE,158,2.0,-999.0,58,0.00,,,0.00,Wunderground v.1.15,2013-08-15 16:48:00,
2013-08-15 12:53:00,73.2,57.5,30.18,SSE,158,2.0,-999.0,58,0.00,,,0.00,Wunderground v.1.15,2013-08-15 16:53:00,
2013-08-15 12:58:00,73.2,57.5,30.18,SSE,158,2.0,-999.0,58,0.00,,,0.00,Wunderground v.1.15,2013-08-15 16:58:00,
2013-08-15 13:03:00,73.2,57.5,30.18,SSE,158,2.0,-999.0,58,0.00,,,0.00,Wunderground v.1.15,2013-08-15 17:03:00,
2013-08-15 13:08:00,73.2,57.5,30.18,SSE,158,2.0,-999.0,58,0.00,,,0.00,Wunderground v.1.15,2013-08-15 17:08:00,
2013-08-15 13:13:00,73.2,57.5,30.18,SSE,158,2.0,-999.0,58,0.00,,,0.00,Wunderground v.1.15,2013-08-15 17:13:00,
2013-08-15 13:18:00,73.9,59.1,30.16,SSE,158,2.0,-999.0,60,0.00,,,0.00,Wunderground v.1.15,2013-08-15 17:18:00,
2013-08-15 13:23:00,73.9,59.1,30.16,SSE,158,2.0,-999.0,60,0.00,,,0.00,Wunderground v.1.15,2013-08-15 17:23:00,
2013-08-15 13:28:00,73.9,59.1,30.16,SSE,158,2.0,-999.0,60,0.00,,,0.00,Wunderground v.1.15,2013-08-15 17:28:00,
2013-08-15 13:33:00,73.9,59.1,30.16,SSE,158,2.0,-999.0,60,0.00,,,0.00,Wunderground v.1.15,2013-08-15 17:33:00,
2013-08-15 13:38:00,73.9,59.1,30.16,SSE,158,2.0,-999.0,60,0.00,,,0.00,Wunderground v.1.15,2013-08-15 17:38:00,
2013-08-15 13:43:00,73.9,59.1,30.16,SSE,158,2.0,-999.0,60,0.00,,,0.00,Wunderground v.1.15,2013-08-15 17:43:00,
2013-08-15 13:48:00,74.4,59.1,30.16,SSE,158,2.0,-999.0,59,0.00,,,0.00,Wunderground v.1.15,2013-08-15 17:48:00,
2013-08-15 13:53:00,74.4,59.1,30.16,SSE,158,2.0,-999.0,59,0.00,,,0.00,Wunderground v.1.15,2013-08-15 17:53:00,
2013-08-15 13:58:00,74.4,59.1,30.16,SSE,158,2.0,-999.0,59,0.00,,,0.00,Wunderground v.1.15,2013-08-15 17:58:00,
2013-08-15 14:03:00,74.4,59.1,30.16,SSE,158,2.0,-999.0,59,0.00,,,0.00,Wunderground v.1.15,2013-08-15 18:03:00,
2013-08-15 14:08:00,74.4,59.1,30.16,SSE,158,2.0,-999.0,59,0.00,,,0.00,Wunderground v.1.15,2013-08-15 18:08:00,
2013-08-15 14:13:00,74.4,59.1,30.16,SSE,158,2.0,-999.0,59,0.00,,,0.00,Wunderground v.1.15,2013-08-15 18:13:00,
2013-08-15 14:18:00,73.5,60.1,30.15,SSE,158,1.0,-999.0,63,0.00,,,0.00,Wunderground v.1.15,2013-08-15 18:18:00,
2013-08-15 14:23:00,73.5,60.1,30.15,SSE,158,1.0,-999.0,63,0.00,,,0.00,Wunderground v.1.15,2013-08-15 18:23:00,
2013-08-15 14:28:00,73.5,60.1,30.15,SSE,158,1.0,-999.0,63,0.00,,,0.00,Wunderground v.1.15,2013-08-15 18:28:00,
2013-08-15 14:33:00,73.5,60.1,30.15,SSE,158,1.0,-999.0,63,0.00,,,0.00,Wunderground v.1.15,2013-08-15 18:33:00,
2013-08-15 14:38:00,73.5,60.1,30.15,SSE,158,1.0,-999.0,63,0.00,,,0.00,Wunderground v.1.15,2013-08-15 18:38:00,
2013-08-15 14:43:00,73.5,60.1,30.15,SSE,158,1.0,-999.0,63,0.00,,,0.00,Wunderground v.1.15,2013-08-15 18:43:00,
2013-08-15 14:48:00,72.9,59.6,30.14,WSW,248,1.0,-999.0,63,0.00,,,0.00,Wunderground v.1.15,2013-08-15 18:48:00,
2013-08-15 14:53:00,72.9,59.6,30.14,WSW,248,1.0,-999.0,63,0.00,,,0.00,Wunderground v.1.15,2013-08-15 18:53:00,
2013-08-15 14:58:00,72.9,59.6,30.14,WSW,248,1.0,-999.0,63,0.00,,,0.00,Wunderground v.1.15,2013-08-15 18:58:00,
2013-08-15 15:03:00,72.9,59.6,30.14,WSW,248,1.0,-999.0,63,0.00,,,0.00,Wunderground v.1.15,2013-08-15 19:03:00,
2013-08-15 15:08:00,72.9,59.6,30.14,WSW,248,1.0,-999.0,63,0.00,,,0.00,Wunderground v.1.15,2013-08-15 19:08:00,
2013-08-15 15:13:00,72.9,59.6,30.14,WSW,248,1.0,-999.0,63,0.00,,,0.00,Wunderground v.1.15,2013-08-15 19:13:00,
2013-08-15 15:18:00,72.6,59.3,30.13,WSW,248,1.0,-999.0,63,0.00,,,0.00,Wunderground v.1.15,2013-08-15 19:18:00,
2013-08-15 15:23:00,72.6,59.3,30.13,WSW,248,1.0,-999.0,63,0.00,,,0.00,Wunderground v.1.15,2013-08-15 19:23:00,
2013-08-15 15:28:00,72.6,59.3,30.13,WSW,248,1.0,-999.0,63,0.00,,,0.00,Wunderground v.1.15,2013-08-15 19:28:00,
2013-08-15 15:33:00,72.6,59.3,30.13,WSW,248,1.0,-999.0,63,0.00,,,0.00,Wunderground v.1.15,2013-08-15 19:33:00,
2013-08-15 15:38:00,72.6,59.3,30.13,WSW,248,1.0,-999.0,63,0.00,,,0.00,Wunderground v.1.15,2013-08-15 19:38:00,
2013-08-15 15:43:00,72.6,59.3,30.13,WSW,248,1.0,-999.0,63,0.00,,,0.00,Wunderground v.1.15,2013-08-15 19:43:00,
2013-08-15 15:48:00,72.7,59.4,30.12,SE,135,1.0,-999.0,63,0.00,,,0.00,Wunderground v.1.15,2013-08-15 19:48:00,
2013-08-15 15:53:00,72.7,59.4,30.12,SE,135,1.0,-999.0,63,0.00,,,0.00,Wunderground v.1.15,2013-08-15 19:53:00,
2013-08-15 15:58:00,72.7,59.4,30.12,SE,135,1.0,-999.0,63,0.00,,,0.00,Wunderground v.1.15,2013-08-15 19:58:00,
2013-08-15 16:03:00,72.7,59.4,30.12,SE,135,1.0,-999.0,63,0.00,,,0.00,Wunderground v.1.15,2013-08-15 20:03:00,
2013-08-15 16:08:00,72.7,59.4,30.12,SE,135,1.0,-999.0,63,0.00,,,0.00,Wunderground v.1.15,2013-08-15 20:08:00,
2013-08-15 16:13:00,72.7,59.4,30.12,SE,135,1.0,-999.0,63,0.00,,,0.00,Wunderground v.1.15,2013-08-15 20:13:00,
2013-08-15 16:18:00,72.5,60.9,30.13,SSE,158,1.0,-999.0,67,0.00,,,0.00,Wunderground v.1.15,2013-08-15 20:18:00,
2013-08-15 16:23:00,72.5,60.9,30.13,SSE,158,1.0,-999.0,67,0.00,,,0.00,Wunderground v.1.15,2013-08-15 20:23:00,
2013-08-15 16:28:00,72.5,60.9,30.13,SSE,158,1.0,-999.0,67,0.00,,,0.00,Wunderground v.1.15,2013-08-15 20:28:00,
2013-08-15 16:33:00,72.5,60.9,30.13,SSE,158,1.0,-999.0,67,0.00,,,0.00,Wunderground v.1.15,2013-08-15 20:33:00,
2013-08-15 16:38:00,72.5,60.9,30.13,SSE,158,1.0,-999.0,67,0.00,,,0.00,Wunderground v.1.15,2013-08-15 20:38:00,
2013-08-15 16:43:00,72.5,60.9,30.13,SSE,158,1.0,-999.0,67,0.00,,,0.00,Wunderground v.1.15,2013-08-15 20:43:00,
2013-08-15 16:48:00,71.8,60.2,30.13,SSE,158,1.0,-999.0,67,0.00,,,0.00,Wunderground v.1.15,2013-08-15 20:48:00,
2013-08-15 16:53:00,71.8,60.2,30.13,SSE,158,1.0,-999.0,67,0.00,,,0.00,Wunderground v.1.15,2013-08-15 20:53:00,
2013-08-15 16:58:00,71.8,60.2,30.13,SSE,158,1.0,-999.0,67,0.00,,,0.00,Wunderground v.1.15,2013-08-15 20:58:00,
2013-08-15 17:03:00,71.8,60.2,30.13,SSE,158,1.0,-999.0,67,0.00,,,0.00,Wunderground v.1.15,2013-08-15 21:03:00,
2013-08-15 17:08:00,71.8,60.2,30.13,SSE,158,1.0,-999.0,67,0.00,,,0.00,Wunderground v.1.15,2013-08-15 21:08:00,
2013-08-15 17:13:00,71.8,60.2,30.13,SSE,158,1.0,-999.0,67,0.00,,,0.00,Wunderground v.1.15,2013-08-15 21:13:00,
2013-08-15 17:18:00,71.8,61.1,30.13,SE,135,0.0,-999.0,69,0.00,,,0.00,Wunderground v.1.15,2013-08-15 21:18:00,
2013-08-15 17:23:00,71.8,61.1,30.13,SE,135,0.0,-999.0,69,0.00,,,0.00,Wunderground v.1.15,2013-08-15 21:23:00,
2013-08-15 17:28:00,71.8,61.1,30.13,SE,135,0.0,-999.0,69,0.00,,,0.00,Wunderground v.1.15,2013-08-15 21:28:00,
2013-08-15 17:33:00,71.8,61.1,30.13,SE,135,0.0,-999.0,69,0.00,,,0.00,Wunderground v.1.15,2013-08-15 21:33:00,
2013-08-15 17:38:00,71.8,61.1,30.13,SE,135,0.0,-999.0,69,0.00,,,0.00,Wunderground v.1.15,2013-08-15 21:38:00,
2013-08-15 17:43:00,71.8,61.1,30.13,SE,135,0.0,-999.0,69,0.00,,,0.00,Wunderground v.1.15,2013-08-15 21:43:00,
2013-08-15 17:48:00,73.6,61.5,30.13,SSE,158,1.0,-999.0,66,0.00,,,0.00,Wunderground v.1.15,2013-08-15 21:48:00,
2013-08-15 17:53:00,73.6,61.5,30.13,SSE,158,1.0,-999.0,66,0.00,,,0.00,Wunderground v.1.15,2013-08-15 21:53:00,
2013-08-15 17:58:00,73.6,61.5,30.13,SSE,158,1.0,-999.0,66,0.00,,,0.00,Wunderground v.1.15,2013-08-15 21:58:00,
2013-08-15 18:03:00,73.6,61.5,30.13,SSE,158,1.0,-999.0,66,0.00,,,0.00,Wunderground v.1.15,2013-08-15 22:03:00,
2013-08-15 18:08:00,73.6,61.5,30.13,SSE,158,1.0,-999.0,66,0.00,,,0.00,Wunderground v.1.15,2013-08-15 22:08:00,
2013-08-15 18:13:00,73.6,61.5,30.13,SSE,158,1.0,-999.0,66,0.00,,,0.00,Wunderground v.1.15,2013-08-15 22:13:00,
2013-08-15 18:18:00,73.1,60.6,30.13,SE,135,1.0,-999.0,65,0.00,,,0.00,Wunderground v.1.15,2013-08-15 22:18:00,
2013-08-15 18:23:00,73.1,60.6,30.13,SE,135,1.0,-999.0,65,0.00,,,0.00,Wunderground v.1.15,2013-08-15 22:23:00,
2013-08-15 18:28:00,73.1,60.6,30.13,SE,135,1.0,-999.0,65,0.00,,,0.00,Wunderground v.1.15,2013-08-15 22:28:00,
2013-08-15 18:33:00,73.1,60.6,30.13,SE,135,1.0,-999.0,65,0.00,,,0.00,Wunderground v.1.15,2013-08-15 22:33:00,
2013-08-15 18:38:00,73.1,60.6,30.13,SE,135,1.0,-999.0,65,0.00,,,0.00,Wunderground v.1.15,2013-08-15 22:38:00,
2013-08-15 18:43:00,73.1,60.6,30.13,SE,135,1.0,-999.0,65,0.00,,,0.00,Wunderground v.1.15,2013-08-15 22:43:00,
2013-08-15 18:48:00,72.5,60.5,30.13,SE,135,1.0,-999.0,66,0.00,,,0.00,Wunderground v.1.15,2013-08-15 22:48:00,
2013-08-15 18:53:00,72.5,60.5,30.13,SE,135,1.0,-999.0,66,0.00,,,0.00,Wunderground v.1.15,2013-08-15 22:53:00,
2013-08-15 18:58:00,72.5,60.5,30.13,SE,135,1.0,-999.0,66,0.00,,,0.00,Wunderground v.1.15,2013-08-15 22:58:00,
2013-08-15 19:03:00,72.5,60.5,30.13,SE,135,1.0,-999.0,66,0.00,,,0.00,Wunderground v.1.15,2013-08-15 23:03:00,
2013-08-15 19:08:00,72.5,60.5,30.13,SE,135,1.0,-999.0,66,0.00,,,0.00,Wunderground v.1.15,2013-08-15 23:08:00,
2013-08-15 19:13:00,72.5,60.5,30.13,SE,135,1.0,-999.0,66,0.00,,,0.00,Wunderground v.1.15,2013-08-15 23:13:00,
2013-08-15 19:18:00,71.3,61.4,30.14,SE,135,0.0,-999.0,71,0.00,,,0.00,Wunderground v.1.15,2013-08-15 23:18:00,
2013-08-15 19:23:00,71.3,61.4,30.14,SE,135,0.0,-999.0,71,0.00,,,0.00,Wunderground v.1.15,2013-08-15 23:23:00,
2013-08-15 19:28:00,71.3,61.4,30.14,SE,135,0.0,-999.0,71,0.00,,,0.00,Wunderground v.1.15,2013-08-15 23:28:00,
2013-08-15 19:33:00,71.3,61.4,30.14,SE,135,0.0,-999.0,71,0.00,,,0.00,Wunderground v.1.15,2013-08-15 23:33:00,
2013-08-15 19:38:00,71.3,61.4,30.14,SE,135,0.0,-999.0,71,0.00,,,0.00,Wunderground v.1.15,2013-08-15 23:38:00,
2013-08-15 19:43:00,71.3,61.4,30.14,SE,135,0.0,-999.0,71,0.00,,,0.00,Wunderground v.1.15,2013-08-15 23:43:00,
2013-08-15 19:48:00,70.2,61.1,30.15,SE,135,0.0,-999.0,73,0.00,,,0.00,Wunderground v.1.15,2013-08-15 23:48:00,
2013-08-15 19:53:00,70.2,61.1,30.15,SE,135,0.0,-999.0,73,0.00,,,0.00,Wunderground v.1.15,2013-08-15 23:53:00,
2013-08-15 19:58:00,70.2,61.1,30.15,SE,135,0.0,-999.0,73,0.00,,,0.00,Wunderground v.1.15,2013-08-15 23:58:00,
2013-08-15 20:03:00,70.2,61.1,30.15,SE,135,0.0,-999.0,73,0.00,,,0.00,Wunderground v.1.15,2013-08-16 00:03:00,
2013-08-15 20:08:00,70.2,61.1,30.15,SE,135,0.0,-999.0,73,0.00,,,0.00,Wunderground v.1.15,2013-08-16 00:08:00,
2013-08-15 20:13:00,70.2,61.1,30.15,SE,135,0.0,-999.0,73,0.00,,,0.00,Wunderground v.1.15,2013-08-16 00:13:00,
2013-08-15 20:18:00,69.3,61.8,30.15,N/A,-737280,0.0,-999.0,77,0.00,,,0.00,Wunderground v.1.15,2013-08-16 00:18:00,
2013-08-15 20:23:00,69.3,61.8,30.15,N/A,-737280,0.0,-999.0,77,0.00,,,0.00,Wunderground v.1.15,2013-08-16 00:23:00,
2013-08-15 20:28:00,69.3,61.8,30.15,N/A,-737280,0.0,-999.0,77,0.00,,,0.00,Wunderground v.1.15,2013-08-16 00:28:00,
2013-08-15 20:33:00,69.3,61.8,30.15,N/A,-737280,0.0,-999.0,77,0.00,,,0.00,Wunderground v.1.15,2013-08-16 00:33:00,
2013-08-15 20:38:00,69.3,61.8,30.15,N/A,-737280,0.0,-999.0,77,0.00,,,0.00,Wunderground v.1.15,2013-08-16 00:38:00,
2013-08-15 20:43:00,69.3,61.8,30.15,N/A,-737280,0.0,-999.0,77,0.00,,,0.00,Wunderground v.1.15,2013-08-16 00:43:00,
2013-08-15 20:48:00,67.2,61.2,30.16,N/A,-737280,0.0,-999.0,81,0.00,,,0.00,Wunderground v.1.15,2013-08-16 00:48:00,
2013-08-15 20:53:00,67.2,61.2,30.16,N/A,-737280,0.0,-999.0,81,0.00,,,0.00,Wunderground v.1.15,2013-08-16 00:53:00,
2013-08-15 20:58:00,67.2,61.2,30.16,N/A,-737280,0.0,-999.0,81,0.00,,,0.00,Wunderground v.1.15,2013-08-16 00:58:00,
2013-08-15 21:03:00,67.2,61.2,30.16,N/A,-737280,0.0,-999.0,81,0.00,,,0.00,Wunderground v.1.15,2013-08-16 01:03:00,
2013-08-15 21:08:00,67.2,61.2,30.16,N/A,-737280,0.0,-999.0,81,0.00,,,0.00,Wunderground v.1.15,2013-08-16 01:08:00,
2013-08-15 21:13:00,67.2,61.2,30.16,N/A,-737280,0.0,-999.0,81,0.00,,,0.00,Wunderground v.1.15,2013-08-16 01:13:00,
2013-08-15 21:18:00,65.6,61.0,30.16,N/A,-737280,0.0,-999.0,85,0.00,,,0.00,Wunderground v.1.15,2013-08-16 01:18:00,
2013-08-15 21:23:00,65.6,61.0,30.16,N/A,-737280,0.0,-999.0,85,0.00,,,0.00,Wunderground v.1.15,2013-08-16 01:23:00,
2013-08-15 21:28:00,65.6,61.0,30.16,N/A,-737280,0.0,-999.0,85,0.00,,,0.00,Wunderground v.1.15,2013-08-16 01:28:00,
2013-08-15 21:33:00,65.6,61.0,30.16,N/A,-737280,0.0,-999.0,85,0.00,,,0.00,Wunderground v.1.15,2013-08-16 01:33:00,
2013-08-15 21:38:00,65.6,61.0,30.16,N/A,-737280,0.0,-999.0,85,0.00,,,0.00,Wunderground v.1.15,2013-08-16 01:38:00,
2013-08-15 21:43:00,65.6,61.0,30.16,N/A,-737280,0.0,-999.0,85,0.00,,,0.00,Wunderground v.1.15,2013-08-16 01:43:00,
2013-08-15 21:48:00,64.6,60.6,30.17,N/A,-737280,0.0,-999.0,87,0.00,,,0.00,Wunderground v.1.15,2013-08-16 01:48:00,
2013-08-15 21:53:00,64.6,60.6,30.17,N/A,-737280,0.0,-999.0,87,0.00,,,0.00,Wunderground v.1.15,2013-08-16 01:53:00,
2013-08-15 21:58:00,64.6,60.6,30.17,N/A,-737280,0.0,-999.0,87,0.00,,,0.00,Wunderground v.1.15,2013-08-16 01:58:00,
2013-08-15 22:03:00,64.6,60.6,30.17,N/A,-737280,0.0,-999.0,87,0.00,,,0.00,Wunderground v.1.15,2013-08-16 02:03:00,
2013-08-15 22:08:00,64.6,60.6,30.17,N/A,-737280,0.0,-999.0,87,0.00,,,0.00,Wunderground v.1.15,2013-08-16 02:08:00,
2013-08-15 22:13:00,64.6,60.6,30.17,N/A,-737280,0.0,-999.0,87,0.00,,,0.00,Wunderground v.1.15,2013-08-16 02:13:00,
2013-08-15 22:18:00,64.3,60.7,30.18,N/A,-737280,0.0,-999.0,88,0.00,,,0.00,Wunderground v.1.15,2013-08-16 02:18:00,
2013-08-15 22:23:00,64.3,60.7,30.18,N/A,-737280,0.0,-999.0,88,0.00,,,0.00,Wunderground v.1.15,2013-08-16 02:23:00,
2013-08-15 22:28:00,64.3,60.7,30.18,N/A,-737280,0.0,-999.0,88,0.00,,,0.00,Wunderground v.1.15,2013-08-16 02:28:00,
2013-08-15 22:33:00,64.3,60.7,30.18,N/A,-737280,0.0,-999.0,88,0.00,,,0.00,Wunderground v.1.15,2013-08-16 02:33:00,
2013-08-15 22:38:00,64.3,60.7,30.18,N/A,-737280,0.0,-999.0,88,0.00,,,0.00,Wunderground v.1.15,2013-08-16 02:38:00,
2013-08-15 22:43:00,64.3,60.7,30.18,N/A,-737280,0.0,-999.0,88,0.00,,,0.00,Wunderground v.1.15,2013-08-16 02:43:00,
2013-08-15 22:48:00,64.3,60.3,30.18,N/A,-737280,0.0,-999.0,87,0.00,,,0.00,Wunderground v.1.15,2013-08-16 02:48:00,
2013-08-15 22:53:00,64.3,60.3,30.18,N/A,-737280,0.0,-999.0,87,0.00,,,0.00,Wunderground v.1.15,2013-08-16 02:53:00,
2013-08-15 22:58:00,64.3,60.3,30.18,N/A,-737280,0.0,-999.0,87,0.00,,,0.00,Wunderground v.1.15,2013-08-16 02:58:00,
2013-08-15 23:03:00,64.3,60.3,30.18,N/A,-737280,0.0,-999.0,87,0.00,,,0.00,Wunderground v.1.15,2013-08-16 03:03:00,
2013-08-15 23:08:00,64.3,60.3,30.18,N/A,-737280,0.0,-999.0,87,0.00,,,0.00,Wunderground v.1.15,2013-08-16 03:08:00,
2013-08-15 23:13:00,64.3,60.3,30.18,N/A,-737280,0.0,-999.0,87,0.00,,,0.00,Wunderground v.1.15,2013-08-16 03:13:00,
2013-08-15 23:18:00,64.4,60.1,30.17,SE,135,0.0,-999.0,86,0.00,,,0.00,Wunderground v.1.15,2013-08-16 03:18:00,
2013-08-15 23:23:00,64.4,60.1,30.17,SE,135,0.0,-999.0,86,0.00,,,0.00,Wunderground v.1.15,2013-08-16 03:23:00,
2013-08-15 23:28:00,64.4,60.1,30.17,SE,135,0.0,-999.0,86,0.00,,,0.00,Wunderground v.1.15,2013-08-16 03:28:00,
2013-08-15 23:33:00,64.4,60.1,30.17,SE,135,0.0,-999.0,86,0.00,,,0.00,Wunderground v.1.15,2013-08-16 03:33:00,
2013-08-15 23:38:00,64.4,60.1,30.17,SE,135,0.0,-999.0,86,0.00,,,0.00,Wunderground v.1.15,2013-08-16 03:38:00,
2013-08-15 23:43:00,64.4,60.1,30.17,SE,135,0.0,-999.0,86,0.00,,,0.00,Wunderground v.1.15,2013-08-16 03:43:00,
2013-08-15 23:48:00,65.9,60.2,30.17,SE,135,0.0,-999.0,82,0.00,,,0.00,Wunderground v.1.15,2013-08-16 03:48:00,
2013-08-15 23:53:00,65.9,60.2,30.17,SE,135,0.0,-999.0,82,0.00,,,0.00,Wunderground v.1.15,2013-08-16 03:53:00,
2013-08-15 23:58:00,65.9,60.2,30.17,SE,135,0.0,-999.0,82,0.00,,,0.00,Wunderground v.1.15,2013-08-16 03:58:00,